Location: Unspecified
(49.2170°N, 0.0000°E)
Time: 03:23:19
(UTC+00:00)

Transit 4A - Pass Details

Date: 20 June 2019
Orbit: 862 x 982 km, 66.8° (Epoch: 20 July)

Event Time Altitude Azimuth Distance (km) Brightness Sun altitude
Rises 08:41:11 0° 205° (SSW) 3,609 10.9 43.3°
Reaches altitude 10° 08:43:42 10° 204° (SSW) 2,682 10.4 43.7°
Maximum altitude 08:49:57 72° 121° (ESE) 1,023 9.5 44.7°
Drops below altitude 10° 08:56:22 10° 39° (NE) 2,744 10.7 45.7°
Sets 08:58:57 0° 37° (NE) 3,697 11.2 46.1°
